| time (UTC) | temp C | wind direction | speed KPH | gust KPH | rain 1hr cm | rain 24hr cm | rain mn cm | humidity % | barometer mb |
| 20260508102208 | 18 | 123 | 6.4 | 9.7 | 0.00 | 0.00 | 0.00 | 84 | 1010.9 |
| 20260508101808 | 18 | 119 | 3.2 | 6.4 | 0.00 | 0.00 | 0.00 | 85 | 1011.1 |
| 20260508101338 | 18 | 100 | 3.2 | 9.7 | 0.00 | 0.00 | 0.00 | 86 | 1011.2 |
| 20260508100908 | 17 | 139 | 4.8 | 8.0 | 0.00 | 0.00 | 0.00 | 85 | 1011.4 |
| 20260508100503 | 17 | 112 | 1.6 | 8.0 | 0.00 | 0.00 | 0.00 | 86 | 1011.5 |
| 20260508100032 | 17 | 99 | 4.8 | 6.4 | 0.00 | 0.00 | 0.00 | 86 | 1011.3 |
| 20260508095558 | 17 | 109 | 3.2 | 6.4 | 0.00 | 0.00 | 0.00 | 86 | 1011.3 |
| 20260508095102 | 17 | 107 | 4.8 | 6.4 | 0.00 | 0.00 | 0.00 | 85 | 1011.1 |
| 20260508094613 | 17 | 75 | 3.2 | 6.4 | 0.00 | 0.00 | 0.00 | 84 | 1011.4 |
| 20260508094149 | 17 | 84 | 3.2 | 8.0 | 0.00 | 0.00 | 0.00 | 83 | 1011.3 |
| 20260508093732 | 17 | 126 | 3.2 | 9.7 | 0.00 | 0.00 | 0.00 | 82 | 1011.3 |
| 20260508093322 | 17 | 135 | 1.6 | 4.8 | 0.00 | 0.00 | 0.00 | 81 | 1011.2 |
| 20260508092852 | 17 | 99 | 3.2 | 3.2 | 0.00 | 0.00 | 0.00 | 81 | 1011.1 |
| 20260508092427 | 17 | 60 | 3.2 | 6.4 | 0.00 | 0.00 | 0.00 | 81 | 1011.0 |
| 20260508092007 | 18 | 77 | 6.4 | 8.0 | 0.00 | 0.00 | 0.00 | 80 | 1011.1 |
| 20260508091607 | 18 | 122 | 1.6 | 3.2 | 0.00 | 0.00 | 0.00 | 79 | 1011.1 |
| 20260508091117 | 18 | 91 | 3.2 | 4.8 | 0.00 | 0.00 | 0.00 | 79 | 1011.0 |
| 20260508090627 | 18 | 97 | 0.0 | 6.4 | 0.00 | 0.00 | 0.00 | 80 | 1011.0 |
| 20260508090219 | 18 | 45 | 3.2 | 4.8 | 0.00 | 0.00 | 0.00 | 80 | 1011.2 |
| 20260508085752 | 18 | 104 | 3.2 | 6.4 | 0.00 | 0.00 | 0.00 | 78 | 1011.1 |
| 20260508085348 | 18 | 90 | 3.2 | 9.7 | 0.00 | 0.00 | 0.00 | 81 | 1011.0 |
| 20260508084922 | 18 | 71 | 0.0 | 9.7 | 0.00 | 0.00 | 0.00 | 81 | 1010.8 |
| 20260508084442 | 17 | 95 | 6.4 | 9.7 | 0.00 | 0.00 | 0.00 | 81 | 1010.8 |
| 20260508084042 | 18 | 124 | 1.6 | 6.4 | 0.00 | 0.00 | 0.00 | 80 | 1011.0 |
| 20260508083637 | 18 | 134 | 6.4 | 8.0 | 0.00 | 0.00 | 0.00 | 79 | 1011.0 |
| 20260508083142 | 18 | 118 | 1.6 | 8.0 | 0.00 | 0.00 | 0.00 | 79 | 1010.9 |
| 20260508082647 | 18 | 86 | 3.2 | 3.2 | 0.00 | 0.00 | 0.00 | 78 | 1010.8 |
| 20260508082218 | 18 | 109 | 3.2 | 6.4 | 0.00 | 0.00 | 0.00 | 78 | 1010.8 |
| 20260508081737 | 17 | 97 | 1.6 | 6.4 | 0.00 | 0.00 | 0.00 | 77 | 1010.7 |
| 20260508081322 | 18 | 96 | 0.0 | 4.8 | 0.00 | 0.00 | 0.00 | 76 | 1010.8 |
| 20260508080847 | 18 | 122 | 0.0 | 6.4 | 0.00 | 0.00 | 0.00 | 75 | 1010.8 |
| 20260508080447 | 18 | 81 | 6.4 | 8.0 | 0.00 | 0.00 | 0.00 | 74 | 1010.7 |
| 20260508080002 | 18 | 90 | 0.0 | 4.8 | 0.00 | 0.00 | 0.00 | 74 | 1010.9 |
| 20260508075537 | 18 | 96 | 0.0 | 6.4 | 0.00 | 0.00 | 0.00 | 75 | 1010.6 |
| 20260508075122 | 18 | 57 | 3.2 | 4.8 | 0.00 | 0.00 | 0.00 | 76 | 1010.8 |
| 20260508074722 | 18 | 112 | 1.6 | 6.4 | 0.00 | 0.00 | 0.00 | 77 | 1010.6 |
| 20260508074242 | 18 | 53 | 3.2 | 8.0 | 0.00 | 0.00 | 0.00 | 78 | 1010.6 |
| 20260508073837 | 18 | 142 | 3.2 | 4.8 | 0.00 | 0.00 | 0.00 | 79 | 1010.6 |
| 20260508073412 | 18 | 81 | 1.6 | 4.8 | 0.00 | 0.00 | 0.00 | 80 | 1010.7 |
| 20260508072932 | 18 | 93 | 3.2 | 6.4 | 0.00 | 0.00 | 0.00 | 80 | 1010.3 |
| 20260508072457 | 17 | 48 | 1.6 | 8.0 | 0.00 | 0.00 | 0.00 | 82 | 1010.6 |
| 20260508072057 | 17 | 94 | 1.6 | 6.4 | 0.00 | 0.00 | 0.00 | 82 | 1010.6 |
| 20260508071648 | 17 | 85 | 0.0 | 3.2 | 0.00 | 0.00 | 0.00 | 81 | 1010.7 |
| 20260508071229 | 17 | 103 | 0.0 | 3.2 | 0.00 | 0.00 | 0.00 | 81 | 1010.9 |
| 20260508070822 | 17 | 117 | 0.0 | 4.8 | 0.00 | 0.00 | 0.00 | 80 | 1010.8 |
| 20260508070347 | 17 | 99 | 1.6 | 4.8 | 0.00 | 0.00 | 0.00 | 79 | 1011.0 |
| 20260508065847 | 18 | 90 | 3.2 | 4.8 | 0.00 | 0.00 | 0.00 | 77 | 1011.0 |
| 20260508065407 | 17 | 89 | 0.0 | 4.8 | 0.00 | 0.00 | 0.00 | 78 | 1010.9 |
| 20260508064907 | 18 | 92 | 3.2 | 4.8 | 0.00 | 0.00 | 0.00 | 78 | 1010.8 |
| 20260508064452 | 17 | 106 | 1.6 | 6.4 | 0.00 | 0.00 | 0.00 | 80 | 1010.8 |
| 20260508064022 | 17 | 77 | 3.2 | 4.8 | 0.00 | 0.00 | 0.00 | 81 | 1010.3 |
| 20260508063617 | 17 | 103 | 1.6 | 6.4 | 0.00 | 0.00 | 0.00 | 82 | 1010.1 |
| 20260508063148 | 17 | 124 | 3.2 | 4.8 | 0.00 | 0.00 | 0.00 | 81 | 1010.3 |
| 20260508062707 | 17 | 103 | 3.2 | 6.4 | 0.00 | 0.00 | 0.00 | 82 | 1010.2 |
| 20260508062227 | 17 | 119 | 4.8 | 6.4 | 0.00 | 0.00 | 0.00 | 81 | 1010.3 |
| 20260508061748 | 17 | 95 | 6.4 | 8.0 | 0.00 | 0.00 | 0.00 | 82 | 1010.2 |
| 20260508061323 | 16 | 77 | 1.6 | 4.8 | 0.00 | 0.00 | 0.00 | 82 | 1010.3 |
| 20260508060854 | 16 | 106 | 0.0 | 4.8 | 0.00 | 0.00 | 0.00 | 82 | 1010.3 |
| 20260508060442 | 16 | 87 | 3.2 | 6.4 | 0.00 | 0.00 | 0.00 | 83 | 1010.3 |
| 20260508060033 | 16 | 93 | 0.0 | 0.0 | 0.00 | 0.00 | 0.00 | 83 | 1010.1 |
| 20260508055602 | 16 | 123 | 1.6 | 3.2 | 0.00 | 0.00 | 0.00 | 83 | 1010.0 |
| 20260508055158 | 16 | 97 | 0.0 | 6.4 | 0.00 | 0.00 | 0.00 | 83 | 1010.2 |
| 20260508054718 | 16 | 100 | 4.8 | 6.4 | 0.00 | 0.00 | 0.00 | 83 | 1010.0 |
| 20260508054230 | 16 | 102 | 0.0 | 1.6 | 0.00 | 0.00 | 0.00 | 84 | 1010.1 |
| 20260508053807 | 16 | 118 | 3.2 | 6.4 | 0.00 | 0.00 | 0.00 | 84 | 1009.9 |
| 20260508053332 | 16 | 96 | 0.0 | 1.6 | 0.00 | 0.00 | 0.00 | 85 | 1009.8 |
| 20260508052918 | 15 | 101 | 0.0 | 3.2 | 0.00 | 0.00 | 0.00 | 85 | 1009.5 |
| 20260508052447 | 15 | 101 | 0.0 | 4.8 | 0.00 | 0.00 | 0.00 | 86 | 1009.5 |
| 20260508052012 | 15 | 94 | 0.0 | 1.6 | 0.00 | 0.00 | 0.00 | 86 | 1009.5 |
| 20260508051547 | 15 | 98 | 0.0 | 4.8 | 0.00 | 0.00 | 0.00 | 86 | 1009.3 |
| 20260508050652 | 15 | 93 | 0.0 | 4.8 | 0.00 | 0.00 | 0.00 | 87 | 1009.5 |
| 20260508050238 | 16 | 91 | 0.0 | 0.0 | 0.00 | 0.00 | 0.00 | 88 | 1009.3 |
| 20260508045737 | 16 | 81 | 3.2 | 4.8 | 0.00 | 0.00 | 0.00 | 88 | 1009.5 |
| 20260508045237 | 16 | 96 | 0.0 | 1.6 | 0.00 | 0.00 | 0.00 | 88 | 1009.6 |
| 20260508044827 | 16 | 81 | 3.2 | 6.4 | 0.00 | 0.00 | 0.00 | 88 | 1009.5 |
| 20260508044339 | 16 | 63 | 3.2 | 8.0 | 0.00 | 0.00 | 0.00 | 88 | 1009.5 |
| 20260508043903 | 16 | 88 | 3.2 | 6.4 | 0.00 | 0.00 | 0.00 | 88 | 1009.5 |
| 20260508043427 | 16 | 52 | 1.6 | 4.8 | 0.00 | 0.00 | 0.00 | 89 | 1009.3 |
| 20260508043008 | 16 | 88 | 1.6 | 6.4 | 0.00 | 0.00 | 0.00 | 89 | 1009.5 |
| 20260508042557 | 16 | 101 | 1.6 | 6.4 | 0.00 | 0.00 | 0.00 | 89 | 1009.5 |
| 20260508042142 | 16 | 59 | 3.2 | 6.4 | 0.00 | 0.00 | 0.00 | 89 | 1009.5 |
| 20260508041648 | 16 | 78 | 1.6 | 4.8 | 0.00 | 0.00 | 0.00 | 89 | 1009.4 |
| 20260508041152 | 16 | 87 | 1.6 | 6.4 | 0.00 | 0.00 | 0.00 | 89 | 1009.5 |
| 20260508040747 | 16 | 88 | 4.8 | 8.0 | 0.00 | 0.00 | 0.00 | 89 | 1009.7 |
| 20260508040330 | 16 | 67 | 0.0 | 4.8 | 0.00 | 0.00 | 0.00 | 89 | 1009.8 |
| 20260508035852 | 16 | 102 | 0.0 | 3.2 | 0.00 | 0.00 | 0.00 | 89 | 1009.8 |
| 20260508035422 | 16 | 97 | 1.6 | 6.4 | 0.00 | 0.00 | 0.00 | 89 | 1009.7 |
| 20260508035012 | 16 | 85 | 1.6 | 8.0 | 0.00 | 0.00 | 0.00 | 89 | 1009.8 |
| 20260508034516 | 16 | 90 | 3.2 | 4.8 | 0.00 | 0.00 | 0.00 | 89 | 1009.9 |
| 20260508034107 | 16 | 87 | 4.8 | 6.4 | 0.00 | 0.00 | 0.00 | 88 | 1009.8 |
| 20260508033637 | 16 | 114 | 4.8 | 6.4 | 0.00 | 0.00 | 0.00 | 88 | 1009.7 |
| 20260508033207 | 16 | 79 | 0.0 | 4.8 | 0.00 | 0.00 | 0.00 | 88 | 1009.6 |
| 20260508032757 | 16 | 95 | 0.0 | 4.8 | 0.00 | 0.00 | 0.00 | 88 | 1009.7 |
| 20260508032347 | 16 | 124 | 6.4 | 6.4 | 0.00 | 0.00 | 0.00 | 87 | 1009.9 |
| 20260508031936 | 16 | 110 | 0.0 | 3.2 | 0.00 | 0.00 | 0.00 | 86 | 1009.7 |
| 20260508031503 | 16 | 102 | 1.6 | 4.8 | 0.00 | 0.00 | 0.00 | 86 | 1009.7 |
| 20260508031058 | 16 | 107 | 0.0 | 0.0 | 0.00 | 0.00 | 0.00 | 86 | 1009.6 |
| 20260508030602 | 16 | 99 | 3.2 | 4.8 | 0.00 | 0.00 | 0.00 | 86 | 1009.6 |
| 20260508030147 | 16 | 74 | 0.0 | 1.6 | 0.00 | 0.00 | 0.00 | 87 | 1009.6 |
| 20260508025702 | 16 | 85 | 0.0 | 1.6 | 0.00 | 0.00 | 0.00 | 87 | 1009.4 |
| 20260508025222 | 16 | 120 | 1.6 | 3.2 | 0.00 | 0.00 | 0.00 | 87 | 1009.5 |
| 20260508024812 | 16 | 85 | 1.6 | 3.2 | 0.00 | 0.00 | 0.00 | 87 | 1009.6 |
| 20260508024323 | 16 | 112 | 1.6 | 6.4 | 0.00 | 0.00 | 0.00 | 87 | 1009.7 |
| 20260508023842 | 16 | 127 | 3.2 | 8.0 | 0.00 | 0.00 | 0.00 | 88 | 1009.6 |
| 20260508023433 | 16 | 99 | 0.0 | 3.2 | 0.00 | 0.00 | 0.00 | 88 | 1009.6 |
| 20260508022932 | 16 | 119 | 3.2 | 4.8 | 0.00 | 0.00 | 0.00 | 88 | 1009.6 |
| 20260508022523 | 16 | 128 | 6.4 | 8.0 | 0.00 | 0.00 | 0.00 | 88 | 1009.7 |
| 20260508022033 | 16 | 102 | 3.2 | 6.4 | 0.00 | 0.00 | 0.00 | 88 | 1009.7 |
| 20260508021543 | 16 | 140 | 6.4 | 6.4 | 0.00 | 0.00 | 0.00 | 88 | 1009.6 |
| 20260508021112 | 16 | 74 | 1.6 | 9.7 | 0.00 | 0.00 | 0.00 | 88 | 1009.7 |
| 20260508020702 | 16 | 97 | 3.2 | 6.4 | 0.00 | 0.00 | 0.00 | 88 | 1009.5 |
| 20260508020243 | 16 | 84 | 3.2 | 16.1 | 0.00 | 0.00 | 0.00 | 87 | 1009.9 |
| 20260508015843 | 16 | 140 | 6.4 | 12.9 | 0.00 | 0.00 | 0.00 | 87 | 1009.6 |
| 20260508015421 | 16 | 127 | 9.7 | 14.5 | 0.00 | 0.00 | 0.00 | 87 | 1009.6 |
| 20260508015003 | 16 | 113 | 0.0 | 9.7 | 0.00 | 0.00 | 0.00 | 87 | 1009.6 |
| 20260508014558 | 16 | 102 | 1.6 | 6.4 | 0.00 | 0.00 | 0.00 | 87 | 1009.4 |
| 20260508014153 | 16 | 98 | 1.6 | 3.2 | 0.00 | 0.00 | 0.00 | 87 | 1009.5 |
| 20260508013718 | 16 | 128 | 0.0 | 3.2 | 0.00 | 0.00 | 0.00 | 87 | 1009.6 |
| 20260508013252 | 16 | 78 | 3.2 | 9.7 | 0.00 | 0.00 | 0.00 | 87 | 1009.6 |
| 20260508012757 | 16 | 89 | 8.0 | 12.9 | 0.00 | 0.00 | 0.00 | 87 | 1009.5 |
| 20260508012333 | 16 | 102 | 3.2 | 8.0 | 0.00 | 0.00 | 0.00 | 87 | 1009.5 |
| 20260508011858 | 16 | 113 | 3.2 | 4.8 | 0.00 | 0.00 | 0.00 | 87 | 1009.5 |
| 20260508011458 | 16 | 94 | 0.0 | 1.6 | 0.00 | 0.00 | 0.00 | 87 | 1009.6 |
| 20260508011042 | 16 | 62 | 1.6 | 4.8 | 0.00 | 0.00 | 0.00 | 87 | 1009.8 |
| 20260508010638 | 16 | 76 | 1.6 | 3.2 | 0.00 | 0.00 | 0.00 | 87 | 1009.6 |
| 20260508010143 | 16 | 75 | 0.0 | 1.6 | 0.00 | 0.00 | 0.00 | 87 | 1009.8 |
| 20260508005704 | 16 | 104 | 0.0 | 1.6 | 0.00 | 0.00 | 0.00 | 87 | 1009.6 |
| 20260508005244 | 16 | 88 | 0.0 | 1.6 | 0.00 | 0.00 | 0.00 | 87 | 1009.7 |
| 20260508004744 | 16 | 91 | 1.6 | 3.2 | 0.00 | 0.00 | 0.00 | 86 | 1009.8 |
| 20260508004254 | 16 | 95 | 0.0 | 3.2 | 0.00 | 0.00 | 0.00 | 86 | 1009.7 |
| 20260508003804 | 16 | 351 | 3.2 | 3.2 | 0.00 | 0.00 | 0.00 | 86 | 1009.8 |
| 20260508003319 | 16 | 81 | 1.6 | 3.2 | 0.00 | 0.00 | 0.00 | 85 | 1010.0 |
| 20260508002834 | 16 | 69 | 1.6 | 3.2 | 0.00 | 0.00 | 0.00 | 85 | 1009.6 |
| 20260508002339 | 16 | 15 | 1.6 | 4.8 | 0.00 | 0.00 | 0.00 | 85 | 1010.0 |
| 20260508001924 | 16 | 89 | 1.6 | 4.8 | 0.00 | 0.00 | 0.00 | 85 | 1009.8 |
| 20260508001454 | 16 | 339 | 1.6 | 3.2 | 0.00 | 0.00 | 0.00 | 85 | 1009.7 |
| 20260508000959 | 16 | 357 | 6.4 | 8.0 | 0.00 | 0.00 | 0.00 | 85 | 1009.9 |
| 20260508000503 | 16 | 18 | 1.6 | 3.2 | 0.00 | 0.00 | 0.00 | 85 | 1009.9 |
| 20260508000019 | 16 | 49 | 1.6 | 3.2 | 0.00 | 0.00 | 0.00 | 85 | 1010.0 |
| 20260507235534 | 16 | 60 | 3.2 | 4.8 | 0.00 | 0.00 | 0.00 | 85 | 1010.2 |
| 20260507235039 | 16 | 95 | 3.2 | 9.7 | 0.00 | 0.00 | 0.00 | 86 | 1010.4 |
| 20260507234549 | 16 | 71 | 1.6 | 4.8 | 0.00 | 0.00 | 0.00 | 86 | 1010.0 |
| 20260507234110 | 16 | 85 | 3.2 | 9.7 | 0.00 | 0.00 | 0.00 | 86 | 1010.3 |
| 20260507233704 | 16 | 336 | 4.8 | 9.7 | 0.00 | 0.00 | 0.00 | 86 | 1010.1 |
| 20260507233244 | 16 | 308 | 3.2 | 4.8 | 0.00 | 0.00 | 0.00 | 86 | 1010.3 |
| 20260507232827 | 16 | 85 | 0.0 | 1.6 | 0.00 | 0.00 | 0.00 | 86 | 1010.3 |
| 20260507232350 | 16 | 82 | 0.0 | 3.2 | 0.00 | 0.00 | 0.00 | 86 | 1010.1 |
| 20260507231949 | 16 | 83 | 1.6 | 3.2 | 0.00 | 0.00 | 0.00 | 86 | 1010.2 |
| 20260507231519 | 16 | 35 | 1.6 | 3.2 | 0.00 | 0.00 | 0.00 | 86 | 1010.4 |
| 20260507231029 | 16 | 70 | 0.0 | 0.0 | 0.00 | 0.00 | 0.00 | 86 | 1010.2 |
| 20260507230619 | 16 | 97 | 0.0 | 0.0 | 0.00 | 0.00 | 0.00 | 86 | 1010.3 |
| 20260507230119 | 16 | 98 | 0.0 | 0.0 | 0.00 | 0.00 | 0.00 | 85 | 1010.6 |
| 20260507225654 | 16 | 94 | 0.0 | 0.0 | 0.00 | 0.00 | 0.00 | 85 | 1010.7 |
| 20260507225214 | 16 | 80 | 0.0 | 0.0 | 0.00 | 0.00 | 0.00 | 85 | 1010.4 |
| 20260507224810 | 16 | 101 | 0.0 | 0.0 | 0.00 | 0.00 | 0.00 | 85 | 1010.4 |
| 20260507224350 | 16 | 95 | 0.0 | 3.2 | 0.00 | 0.00 | 0.00 | 85 | 1010.4 |
| 20260507223929 | 16 | 104 | 0.0 | 3.2 | 0.00 | 0.00 | 0.00 | 85 | 1010.7 |
| 20260507223454 | 16 | 103 | 3.2 | 4.8 | 0.00 | 0.00 | 0.00 | 86 | 1010.6 |
| 20260507223009 | 16 | 119 | 0.0 | 3.2 | 0.00 | 0.00 | 0.00 | 86 | 1010.7 |
| 20260507222534 | 17 | 112 | 1.6 | 4.8 | 0.00 | 0.00 | 0.00 | 86 | 1010.7 |
| 20260507222104 | 17 | 106 | 0.0 | 1.6 | 0.00 | 0.00 | 0.00 | 87 | 1010.6 |
| 20260507221659 | 17 | 161 | 1.6 | 3.2 | 0.00 | 0.00 | 0.00 | 87 | 1010.6 |
| 20260507221304 | 17 | 129 | 3.2 | 4.8 | 0.00 | 0.00 | 0.00 | 87 | 1010.6 |
| 20260507220819 | 17 | 109 | 0.0 | 4.8 | 0.00 | 0.00 | 0.00 | 86 | 1010.8 |
| 20260507220344 | 17 | 136 | 6.4 | 8.0 | 0.00 | 0.00 | 0.00 | 86 | 1010.8 |
| 20260507215439 | 17 | 104 | 0.0 | 8.0 | 0.00 | 0.00 | 0.00 | 86 | 1010.8 |
| 20260507215001 | 17 | 97 | 0.0 | 6.4 | 0.00 | 0.00 | 0.00 | 86 | 1010.4 |
| 20260507214514 | 17 | 125 | 3.2 | 6.4 | 0.00 | 0.00 | 0.00 | 86 | 1010.4 |
| 20260507214104 | 17 | 110 | 3.2 | 6.4 | 0.00 | 0.00 | 0.00 | 85 | 1010.3 |
| 20260507213629 | 17 | 120 | 3.2 | 4.8 | 0.00 | 0.00 | 0.00 | 85 | 1010.1 |
| 20260507213201 | 17 | 103 | 3.2 | 4.8 | 0.00 | 0.00 | 0.00 | 84 | 1010.2 |
| 20260507212739 | 17 | 100 | 0.0 | 1.6 | 0.00 | 0.00 | 0.00 | 84 | 1010.3 |
| 20260507212239 | 17 | 107 | 0.0 | 6.4 | 0.00 | 0.00 | 0.00 | 83 | 1010.3 |
| 20260507211815 | 17 | 134 | 3.2 | 4.8 | 0.00 | 0.00 | 0.00 | 83 | 1010.1 |
| 20260507211404 | 17 | 97 | 0.0 | 4.8 | 0.00 | 0.00 | 0.00 | 82 | 1010.2 |
| 20260507210914 | 17 | 99 | 1.6 | 6.4 | 0.00 | 0.00 | 0.00 | 82 | 1009.9 |
| 20260507210414 | 17 | 110 | 0.0 | 3.2 | 0.00 | 0.00 | 0.00 | 80 | 1009.8 |
| 20260507205919 | 17 | 73 | 0.0 | 1.6 | 0.00 | 0.00 | 0.00 | 79 | 1009.8 |
| 20260507205459 | 17 | 88 | 0.0 | 1.6 | 0.00 | 0.00 | 0.00 | 79 | 1009.9 |
| 20260507205019 | 17 | 90 | 4.8 | 6.4 | 0.00 | 0.00 | 0.00 | 79 | 1009.9 |
| 20260507204601 | 16 | 95 | 0.0 | 4.8 | 0.00 | 0.00 | 0.00 | 81 | 1010.0 |
| 20260507204124 | 16 | 64 | 0.0 | 4.8 | 0.00 | 0.00 | 0.00 | 83 | 1009.8 |
| 20260507203640 | 17 | 95 | 0.0 | 1.6 | 0.00 | 0.00 | 0.00 | 84 | 1009.7 |
| 20260507203236 | 17 | 95 | 0.0 | 3.2 | 0.00 | 0.00 | 0.00 | 84 | 1009.5 |
| 20260507202834 | 17 | 94 | 0.0 | 1.6 | 0.00 | 0.00 | 0.00 | 84 | 1009.5 |
| 20260507202404 | 17 | 93 | 0.0 | 0.0 | 0.00 | 0.00 | 0.00 | 84 | 1009.7 |
| 20260507201904 | 17 | 98 | 0.0 | 1.6 | 0.00 | 0.00 | 0.00 | 84 | 1009.6 |
| 20260507201429 | 17 | 92 | 0.0 | 3.2 | 0.00 | 0.00 | 0.00 | 84 | 1009.7 |
| 20260507201019 | 17 | 93 | 0.0 | 1.6 | 0.00 | 0.00 | 0.00 | 84 | 1009.6 |
| 20260507200609 | 17 | 129 | 1.6 | 3.2 | 0.00 | 0.00 | 0.00 | 84 | 1009.6 |
| 20260507200119 | 17 | 127 | 1.6 | 4.8 | 0.00 | 0.00 | 0.00 | 84 | 1009.6 |
| 20260507195647 | 17 | 111 | 1.6 | 3.2 | 0.00 | 0.00 | 0.00 | 83 | 1009.4 |
| 20260507195214 | 17 | 114 | 1.6 | 4.8 | 0.00 | 0.00 | 0.00 | 84 | 1009.4 |
| 20260507194749 | 17 | 93 | 3.2 | 4.8 | 0.00 | 0.00 | 0.00 | 83 | 1009.3 |
| 20260507194309 | 17 | 81 | 3.2 | 3.2 | 0.00 | 0.00 | 0.00 | 82 | 1009.5 |
| 20260507193824 | 17 | 113 | 3.2 | 4.8 | 0.00 | 0.00 | 0.00 | 82 | 1009.5 |
| 20260507193359 | 17 | 118 | 4.8 | 6.4 | 0.00 | 0.00 | 0.00 | 81 | 1009.4 |
| 20260507192859 | 17 | 127 | 3.2 | 4.8 | 0.00 | 0.00 | 0.00 | 81 | 1009.2 |
| 20260507192439 | 17 | 62 | 1.6 | 3.2 | 0.00 | 0.00 | 0.00 | 81 | 1009.1 |
| 20260507191944 | 17 | 133 | 4.8 | 6.4 | 0.00 | 0.00 | 0.00 | 81 | 1009.1 |
| 20260507191513 | 17 | 67 | 3.2 | 4.8 | 0.00 | 0.00 | 0.00 | 81 | 1009.0 |
| 20260507191059 | 17 | 92 | 3.2 | 6.4 | 0.00 | 0.00 | 0.00 | 80 | 1009.2 |
| 20260507190619 | 17 | 95 | 0.0 | 4.8 | 0.00 | 0.00 | 0.00 | 80 | 1008.9 |
| 20260507190144 | 17 | 124 | 3.2 | 8.0 | 0.00 | 0.00 | 0.00 | 79 | 1008.9 |
| 20260507185649 | 17 | 116 | 3.2 | 6.4 | 0.00 | 0.00 | 0.00 | 78 | 1008.8 |
| 20260507185200 | 17 | 145 | 3.2 | 4.8 | 0.00 | 0.00 | 0.00 | 77 | 1008.8 |
| 20260507184739 | 17 | 126 | 6.4 | 9.7 | 0.00 | 0.00 | 0.00 | 77 | 1008.8 |
| 20260507184309 | 17 | 147 | 3.2 | 12.9 | 0.00 | 0.00 | 0.00 | 76 | 1008.9 |
| 20260507183904 | 17 | 111 | 1.6 | 12.9 | 0.00 | 0.00 | 0.00 | 75 | 1008.8 |
| 20260507183415 | 17 | 102 | 3.2 | 9.7 | 0.00 | 0.00 | 0.00 | 74 | 1009.0 |
| 20260507182929 | 18 | 167 | 3.2 | 6.4 | 0.00 | 0.00 | 0.00 | 72 | 1008.8 |
| 20260507182529 | 17 | 171 | 3.2 | 9.7 | 0.00 | 0.00 | 0.00 | 72 | 1008.6 |
| 20260507182119 | 17 | 152 | 8.0 | 12.9 | 0.00 | 0.00 | 0.00 | 71 | 1008.6 |
| 20260507181639 | 17 | 117 | 3.2 | 12.9 | 0.00 | 0.00 | 0.00 | 71 | 1008.7 |
| 20260507181159 | 17 | 111 | 4.8 | 9.7 | 0.00 | 0.00 | 0.00 | 72 | 1008.7 |
| 20260507180714 | 18 | 133 | 0.0 | 9.7 | 0.00 | 0.00 | 0.00 | 72 | 1008.7 |
| 20260507180259 | 17 | 111 | 8.0 | 16.1 | 0.00 | 0.00 | 0.00 | 72 | 1008.7 |
| 20260507175814 | 18 | 137 | 6.4 | 14.5 | 0.00 | 0.00 | 0.00 | 72 | 1008.5 |
| 20260507175349 | 18 | 127 | 4.8 | 12.9 | 0.00 | 0.00 | 0.00 | 72 | 1008.7 |
| 20260507174924 | 18 | 76 | 3.2 | 8.0 | 0.00 | 0.00 | 0.00 | 71 | 1008.5 |
| 20260507174514 | 18 | 175 | 6.4 | 9.7 | 0.00 | 0.00 | 0.00 | 72 | 1008.7 |
| 20260507174024 | 18 | 95 | 9.7 | 14.5 | 0.00 | 0.00 | 0.00 | 73 | 1008.2 |
| 20260507173529 | 18 | 154 | 6.4 | 14.5 | 0.00 | 0.00 | 0.00 | 72 | 1008.6 |
| 20260507173104 | 18 | 102 | 3.2 | 14.5 | 0.00 | 0.00 | 0.00 | 73 | 1008.5 |
| 20260507172649 | 17 | 160 | 8.0 | 16.1 | 0.00 | 0.00 | 0.00 | 75 | 1008.5 |
| 20260507172249 | 18 | 147 | 3.2 | 12.9 | 0.00 | 0.00 | 0.00 | 75 | 1008.5 |
| 20260507171804 | 18 | 160 | 6.4 | 14.5 | 0.00 | 0.00 | 0.00 | 76 | 1008.1 |
| 20260507171316 | 18 | 133 | 3.2 | 16.1 | 0.00 | 0.00 | 0.00 | 75 | 1008.1 |
| 20260507170839 | 18 | 75 | 3.2 | 12.9 | 0.00 | 0.00 | 0.00 | 74 | 1008.3 |
| 20260507170411 | 18 | 124 | 1.6 | 9.7 | 0.00 | 0.00 | 0.00 | 76 | 1008.2 |
| 20260507170009 | 17 | 140 | 4.8 | 12.9 | 0.00 | 0.00 | 0.00 | 75 | 1008.3 |
| 20260507165549 | 18 | 151 | 12.9 | 20.9 | 0.00 | 0.00 | 0.00 | 74 | 1008.2 |
| 20260507165134 | 18 | 119 | 3.2 | 12.9 | 0.00 | 0.00 | 0.00 | 73 | 1008.1 |
| 20260507164639 | 18 | 114 | 12.9 | 29.0 | 0.00 | 0.00 | 0.00 | 73 | 1008.2 |
| 20260507164219 | 18 | 154 | 16.1 | 19.3 | 0.00 | 0.00 | 0.00 | 72 | 1008.1 |
| 20260507163744 | 18 | 139 | 6.4 | 16.1 | 0.00 | 0.00 | 0.00 | 73 | 1008.1 |
| 20260507163249 | 18 | 160 | 9.7 | 14.5 | 0.00 | 0.00 | 0.00 | 73 | 1008.1 |
| 20260507162838 | 18 | 96 | 9.7 | 16.1 | 0.00 | 0.00 | 0.00 | 72 | 1008.0 |
| 20260507162424 | 18 | 156 | 9.7 | 14.5 | 0.00 | 0.00 | 0.00 | 72 | 1008.2 |
| 20260507162004 | 18 | 151 | 4.8 | 16.1 | 0.00 | 0.00 | 0.00 | 73 | 1008.1 |
| 20260507161514 | 18 | 139 | 1.6 | 9.7 | 0.00 | 0.00 | 0.00 | 70 | 1008.2 |
| 20260507161044 | 18 | 115 | 3.2 | 8.0 | 0.00 | 0.00 | 0.00 | 71 | 1008.2 |
| 20260507160544 | 18 | 132 | 8.0 | 16.1 | 0.00 | 0.00 | 0.00 | 71 | 1008.2 |
| 20260507160139 | 18 | 119 | 9.7 | 14.5 | 0.00 | 0.00 | 0.00 | 72 | 1008.2 |
| 20260507155705 | 18 | 157 | 6.4 | 16.1 | 0.00 | 0.00 | 0.00 | 71 | 1008.2 |
| 20260507155224 | 18 | 152 | 6.4 | 16.1 | 0.00 | 0.00 | 0.00 | 71 | 1008.5 |
| 20260507154803 | 18 | 114 | 11.3 | 16.1 | 0.00 | 0.00 | 0.00 | 70 | 1008.3 |
| 20260507154309 | 18 | 127 | 3.2 | 12.9 | 0.00 | 0.00 | 0.00 | 70 | 1008.5 |
| 20260507153839 | 18 | 107 | 9.7 | 14.5 | 0.00 | 0.00 | 0.00 | 69 | 1008.5 |
| 20260507153414 | 18 | 147 | 11.3 | 14.5 | 0.00 | 0.00 | 0.00 | 68 | 1008.5 |
| 20260507152954 | 18 | 105 | 3.2 | 16.1 | 0.00 | 0.00 | 0.00 | 69 | 1008.6 |
| 20260507152554 | 18 | 112 | 6.4 | 16.1 | 0.00 | 0.00 | 0.00 | 69 | 1008.6 |
| 20260507152139 | 18 | 122 | 3.2 | 9.7 | 0.00 | 0.00 | 0.00 | 67 | 1008.6 |
| 20260507151644 | 18 | 80 | 6.4 | 14.5 | 0.00 | 0.00 | 0.00 | 70 | 1008.7 |
| 20260507151244 | 18 | 100 | 8.0 | 16.1 | 0.00 | 0.00 | 0.00 | 71 | 1008.5 |
| 20260507150824 | 18 | 119 | 8.0 | 12.9 | 0.00 | 0.00 | 0.00 | 67 | 1008.6 |
| 20260507150409 | 18 | 111 | 9.7 | 9.7 | 0.00 | 0.00 | 0.00 | 67 | 1008.6 |
| 20260507145924 | 18 | 116 | 9.7 | 14.5 | 0.00 | 0.00 | 0.00 | 68 | 1008.7 |
| 20260507145451 | 17 | 139 | 8.0 | 14.5 | 0.00 | 0.00 | 0.00 | 71 | 1008.7 |
| 20260507145024 | 18 | 145 | 12.9 | 17.7 | 0.00 | 0.00 | 0.00 | 71 | 1008.6 |
| 20260507144554 | 18 | 107 | 9.7 | 12.9 | 0.00 | 0.00 | 0.00 | 71 | 1008.7 |
| 20260507144131 | 18 | 98 | 4.8 | 16.1 | 0.00 | 0.00 | 0.00 | 72 | 1008.8 |
| 20260507143654 | 18 | 131 | 8.0 | 14.5 | 0.00 | 0.00 | 0.00 | 73 | 1008.8 |
| 20260507143219 | 18 | 98 | 4.8 | 14.5 | 0.00 | 0.00 | 0.00 | 73 | 1009.0 |
| 20260507142729 | 18 | 121 | 8.0 | 9.7 | 0.00 | 0.00 | 0.00 | 72 | 1008.9 |
| 20260507142234 | 18 | 123 | 11.3 | 16.1 | 0.00 | 0.00 | 0.00 | 75 | 1009.0 |
| 20260507141754 | 18 | 153 | 8.0 | 14.5 | 0.00 | 0.00 | 0.00 | 75 | 1008.9 |
| 20260507141324 | 17 | 93 | 9.7 | 14.5 | 0.00 | 0.00 | 0.00 | 76 | 1009.0 |
| 20260507140909 | 18 | 145 | 11.3 | 17.7 | 0.00 | 0.00 | 0.00 | 74 | 1009.1 |
| 20260507140431 | 18 | 137 | 4.8 | 9.7 | 0.00 | 0.00 | 0.00 | 75 | 1009.1 |
| 20260507135939 | 18 | 128 | 8.0 | 16.1 | 0.00 | 0.00 | 0.00 | 74 | 1009.1 |
| 20260507135439 | 18 | 144 | 3.2 | 12.9 | 0.00 | 0.00 | 0.00 | 73 | 1009.3 |
| 20260507135033 | 18 | 130 | 6.4 | 9.7 | 0.00 | 0.00 | 0.00 | 73 | 1009.1 |
| 20260507134549 | 19 | 125 | 8.0 | 12.9 | 0.00 | 0.00 | 0.00 | 71 | 1009.4 |
| 20260507134054 | 18 | 63 | 9.7 | 16.1 | 0.00 | 0.00 | 0.00 | 73 | 1009.5 |
| 20260507133126 | 18 | 144 | 6.4 | 16.1 | 0.00 | 0.00 | 0.00 | 61 | 1009.5 |
| 20260507132704 | 17 | 138 | 11.3 | 16.1 | 0.00 | 0.00 | 0.00 | 62 | 1009.6 |
| 20260507132244 | 17 | 141 | 6.4 | 9.7 | 0.00 | 0.00 | 0.00 | 75 | 1009.7 |
| 20260507131824 | 18 | 136 | 8.0 | 14.5 | 0.00 | 0.00 | 0.00 | 75 | 1009.8 |
| 20260507131334 | 19 | 101 | 4.8 | 14.5 | 0.00 | 0.00 | 0.00 | 73 | 1009.5 |
| 20260507130909 | 20 | 63 | 6.4 | 9.7 | 0.00 | 0.00 | 0.00 | 66 | 1009.6 |
| 20260507130447 | 19 | 164 | 6.4 | 9.7 | 0.00 | 0.00 | 0.00 | 67 | 1009.7 |
| 20260507125949 | 18 | 164 | 6.4 | 17.7 | 0.00 | 0.00 | 0.00 | 70 | 1009.7 |
| 20260507125534 | 18 | 152 | 6.4 | 14.5 | 0.00 | 0.00 | 0.00 | 71 | 1009.5 |
| 20260507125109 | 18 | 112 | 4.8 | 16.1 | 0.00 | 0.00 | 0.00 | 72 | 1009.5 |
| 20260507124624 | 18 | 145 | 9.7 | 14.5 | 0.00 | 0.00 | 0.00 | 73 | 1009.8 |
| 20260507124149 | 18 | 153 | 4.8 | 9.7 | 0.00 | 0.00 | 0.00 | 73 | 1009.8 |
| 20260507123659 | 19 | 140 | 4.8 | 12.9 | 0.00 | 0.00 | 0.00 | 73 | 1009.8 |
| 20260507123204 | 19 | 215 | 4.8 | 16.1 | 0.00 | 0.00 | 0.00 | 73 | 1010.0 |
| 20260507122729 | 18 | 134 | 3.2 | 9.7 | 0.00 | 0.00 | 0.00 | 75 | 1010.1 |
| 20260507122324 | 18 | 155 | 11.3 | 24.1 | 0.00 | 0.00 | 0.00 | 76 | 1010.0 |
| 20260507121824 | 20 | 127 | 4.8 | 8.0 | 0.00 | 0.00 | 0.00 | 71 | 1010.0 |
| 20260507121408 | 19 | 140 | 3.2 | 8.0 | 0.00 | 0.00 | 0.00 | 72 | 1009.9 |
| 20260507120919 | 18 | 164 | 9.7 | 19.3 | 0.00 | 0.00 | 0.00 | 74 | 1009.9 |
| 20260507120454 | 18 | 172 | 9.7 | 22.5 | 0.00 | 0.00 | 0.00 | 74 | 1010.1 |
| 20260507120017 | 18 | 147 | 16.1 | 20.9 | 0.00 | 0.00 | 0.00 | 72 | 1010.0 |
| 20260507115524 | 18 | 116 | 4.8 | 17.7 | 0.00 | 0.00 | 0.00 | 72 | 1010.0 |
| 20260507115047 | 18 | 176 | 12.9 | 19.3 | 0.00 | 0.00 | 0.00 | 71 | 1010.0 |
| 20260507114619 | 18 | 152 | 8.0 | 19.3 | 0.00 | 0.00 | 0.00 | 73 | 1009.9 |
| 20260507114119 | 18 | 132 | 8.0 | 16.1 | 0.00 | 0.00 | 0.00 | 71 | 1009.8 |
| 20260507113619 | 18 | 151 | 19.3 | 24.1 | 0.00 | 0.00 | 0.00 | 72 | 1009.7 |
| 20260507113155 | 18 | 150 | 4.8 | 17.7 | 0.00 | 0.00 | 0.00 | 72 | 1009.9 |
| 20260507112704 | 18 | 126 | 8.0 | 22.5 | 0.00 | 0.00 | 0.00 | 72 | 1009.8 |
| 20260507112254 | 19 | 181 | 9.7 | 19.3 | 0.00 | 0.00 | 0.00 | 71 | 1009.7 |
| 20260507111809 | 19 | 169 | 6.4 | 16.1 | 0.00 | 0.00 | 0.00 | 72 | 1009.7 |
| 20260507111309 | 19 | 144 | 16.1 | 17.7 | 0.00 | 0.00 | 0.00 | 73 | 1009.7 |
| 20260507110819 | 19 | 139 | 16.1 | 22.5 | 0.00 | 0.00 | 0.00 | 72 | 1009.7 |
| 20260507110414 | 19 | 151 | 11.3 | 17.7 | 0.00 | 0.00 | 0.00 | 74 | 1009.8 |
| 20260507105949 | 19 | 132 | 11.3 | 20.9 | 0.00 | 0.00 | 0.00 | 73 | 1009.9 |
| 20260507105539 | 19 | 164 | 9.7 | 17.7 | 0.00 | 0.00 | 0.00 | 73 | 1009.8 |
| 20260507105039 | 18 | 181 | 6.4 | 17.7 | 0.00 | 0.00 | 0.00 | 76 | 1009.8 |
| 20260507104614 | 18 | 130 | 20.9 | 24.1 | 0.00 | 0.00 | 0.00 | 78 | 1009.8 |
| 20260507104149 | 18 | 149 | 17.7 | 22.5 | 0.00 | 0.00 | 0.00 | 80 | 1009.9 |
| 20260507103649 | 18 | 133 | 8.0 | 19.3 | 0.00 | 0.00 | 0.00 | 84 | 1009.5 |
| 20260507103214 | 18 | 171 | 12.9 | 19.3 | 0.00 | 0.00 | 0.00 | 84 | 1009.9 |
| 20260507102804 | 18 | 117 | 3.2 | 12.9 | 0.00 | 0.00 | 0.00 | 86 | 1009.7 |